QTR599 YMML-YSSY

Flight info

Callsign QTR599
Flight time 1h 23m
Altitude 33000
Route ML H129 DOSEL Y59 RIVET
Aircraft A359/H-SDE2E3GHIJ3J4J5LM1ORWXY/LB1D1

Departure

Time 2026-05-06 08:10
Airport Melbourne Airport (YMML)

Arrival

Time 2026-05-06 09:33
Airport Sydney Kingsford Smith International Airport (YSSY)
Time Latitude Longitude Altitude Speed Heading
2026-05-06 07:35 -37.66912 144.84514 367 ft 0 kts 10°
2026-05-06 07:56 -37.66916 144.84513 394 ft 2 kts 10°
2026-05-06 07:56 -37.66932 144.84512 369 ft 2 kts 356°
2026-05-06 07:56 -37.66948 144.84515 367 ft 2 kts 342°
2026-05-06 07:56 -37.66963 144.84523 368 ft 2 kts 327°
2026-05-06 07:57 -37.66976 144.84536 368 ft 2 kts 314°
2026-05-06 07:57 -37.66987 144.84552 366 ft 2 kts 302°
2026-05-06 07:57 -37.66994 144.84570 367 ft 2 kts 294°
2026-05-06 07:57 -37.67000 144.84590 368 ft 2 kts 286°
2026-05-06 07:58 -37.67004 144.84610 370 ft 2 kts 278°
2026-05-06 07:58 -37.67005 144.84624 368 ft 1 kts 271°
2026-05-06 07:58 -37.67005 144.84628 368 ft 0 kts 267°
2026-05-06 08:04 -37.67007 144.84596 372 ft 10 kts 264°
2026-05-06 08:04 -37.67029 144.84462 372 ft 21 kts 244°
2026-05-06 08:04 -37.67066 144.84233 377 ft 32 kts 261°
2026-05-06 08:04 -37.66987 144.84022 383 ft 31 kts 351°
2026-05-06 08:05 -37.66751 144.83977 389 ft 38 kts 351°
2026-05-06 08:05 -37.66495 144.83935 392 ft 19 kts 352°
2026-05-06 08:05 -37.66484 144.83933 392 ft 0 kts 352°
2026-05-06 08:05 -37.66481 144.83933 392 ft 4 kts 352°
2026-05-06 08:06 -37.66390 144.83916 392 ft 24 kts 352°
2026-05-06 08:06 -37.66160 144.83870 390 ft 37 kts 350°
2026-05-06 08:06 -37.65923 144.83822 404 ft 32 kts 353°
2026-05-06 08:06 -37.65714 144.83785 412 ft 28 kts 352°
2026-05-06 08:07 -37.65592 144.83722 415 ft 12 kts 291°
2026-05-06 08:07 -37.65589 144.83707 415 ft 0 kts 280°
2026-05-06 08:08 -37.65591 144.83652 425 ft 12 kts 264°
2026-05-06 08:08 -37.65659 144.83546 415 ft 22 kts 182°
2026-05-06 08:08 -37.65785 144.83577 412 ft 0 kts 171°
2026-05-06 08:09 -37.65840 144.83588 411 ft 34 kts 171°
2026-05-06 08:10 -37.66359 144.83684 401 ft 113 kts 171°
2026-05-06 08:10 -37.67362 144.83869 376 ft 176 kts 173°
2026-05-06 08:10 -37.68706 144.84104 741 ft 202 kts 172°
2026-05-06 08:10 -37.70086 144.84358 1644 ft 203 kts 176°
2026-05-06 08:11 -37.71589 144.84592 2077 ft 231 kts 181°
2026-05-06 08:11 -37.73188 144.84211 2527 ft 241 kts 215°
2026-05-06 08:11 -37.74230 144.82715 3485 ft 221 kts 256°
2026-05-06 08:11 -37.74182 144.80863 4616 ft 211 kts 283°
2026-05-06 08:12 -37.73892 144.79013 5436 ft 218 kts 277°
2026-05-06 08:12 -37.73811 144.77074 6238 ft 226 kts 269°
2026-05-06 08:12 -37.73817 144.75052 7033 ft 234 kts 275°
2026-05-06 08:12 -37.73406 144.73056 7925 ft 239 kts 294°
2026-05-06 08:13 -37.72389 144.71375 8907 ft 248 kts 315°
2026-05-06 08:13 -37.70840 144.70333 9913 ft 261 kts 338°
2026-05-06 08:13 -37.68954 144.70221 10600 ft 290 kts
2026-05-06 08:13 -37.67017 144.71342 10964 ft 331 kts 33°
2026-05-06 08:14 -37.65397 144.73597 11377 ft 360 kts 48°
2026-05-06 08:14 -37.63699 144.75946 11950 ft 363 kts 31°
2026-05-06 08:14 -37.61525 144.77405 12791 ft 358 kts 16°
2026-05-06 08:14 -37.59161 144.78552 13617 ft 363 kts 14°
2026-05-06 08:15 -37.56794 144.79771 14339 ft 373 kts 20°
2026-05-06 08:15 -37.54603 144.81525 15121 ft 382 kts 30°
2026-05-06 08:15 -37.52444 144.83518 15828 ft 388 kts 30°
2026-05-06 08:15 -37.50258 144.85544 16564 ft 393 kts 30°
2026-05-06 08:16 -37.48043 144.87591 17317 ft 397 kts 30°
2026-05-06 08:16 -37.45804 144.89660 18100 ft 401 kts 30°
2026-05-06 08:16 -37.43650 144.91963 18814 ft 413 kts 39°
2026-05-06 08:16 -37.41821 144.94798 19551 ft 423 kts 48°
2026-05-06 08:17 -37.40109 144.97834 20267 ft 427 kts 49°
2026-05-06 08:17 -37.38394 145.00907 20968 ft 431 kts 49°
2026-05-06 08:17 -37.36667 145.03990 21722 ft 433 kts 49°
2026-05-06 08:17 -37.34915 145.07100 22455 ft 437 kts 48°
2026-05-06 08:18 -37.33144 145.10236 23163 ft 441 kts 48°
2026-05-06 08:18 -37.31362 145.13397 23821 ft 445 kts 48°
2026-05-06 08:18 -37.29562 145.16580 24412 ft 449 kts 48°
2026-05-06 08:18 -37.27746 145.19787 25010 ft 452 kts 48°
2026-05-06 08:19 -37.25913 145.23015 25601 ft 456 kts 47°
2026-05-06 08:19 -37.24064 145.26263 26187 ft 459 kts 47°
2026-05-06 08:19 -37.22197 145.29538 26791 ft 462 kts 47°
2026-05-06 08:19 -37.20328 145.32815 27371 ft 465 kts 47°
2026-05-06 08:20 -37.18432 145.36134 27934 ft 469 kts 47°
2026-05-06 08:20 -37.16529 145.39466 28473 ft 472 kts 47°
2026-05-06 08:20 -37.14613 145.42828 29028 ft 475 kts 47°
2026-05-06 08:20 -37.12676 145.46207 29517 ft 479 kts 47°
2026-05-06 08:21 -37.10722 145.49610 30044 ft 482 kts 47°
2026-05-06 08:21 -37.08756 145.53031 30445 ft 486 kts 47°
2026-05-06 08:21 -37.06784 145.56463 30888 ft 488 kts 46°
2026-05-06 08:21 -37.04816 145.59886 31264 ft 491 kts 46°
2026-05-06 08:22 -37.02807 145.63359 31629 ft 495 kts 46°
2026-05-06 08:22 -37.00781 145.66866 31966 ft 499 kts 47°
2026-05-06 08:22 -36.98745 145.70395 32305 ft 502 kts 49°
2026-05-06 08:22 -36.96772 145.74018 32508 ft 506 kts 53°
2026-05-06 08:23 -36.93068 145.81633 32676 ft 514 kts 57°
2026-05-06 08:23 -36.91141 145.85441 32898 ft 512 kts 56°
2026-05-06 08:23 -36.89167 145.89148 33052 ft 512 kts 54°
2026-05-06 08:24 -36.85060 145.96411 33111 ft 518 kts 52°
2026-05-06 08:24 -36.80689 146.03523 33120 ft 513 kts 41°
2026-05-06 08:25 -36.76025 146.10210 33094 ft 509 kts 43°
2026-05-06 08:25 -36.71590 146.17122 33121 ft 512 kts 45°
2026-05-06 08:26 -36.67338 146.24278 33125 ft 514 kts 54°
2026-05-06 08:26 -36.63437 146.31753 33118 ft 518 kts 54°
2026-05-06 08:27 -36.59366 146.39154 33136 ft 515 kts 46°
2026-05-06 08:27 -36.54916 146.46062 33122 ft 511 kts 44°
2026-05-06 08:28 -36.50520 146.52996 33130 ft 512 kts 46°
2026-05-06 08:28 -36.46238 146.60100 33130 ft 514 kts 47°
2026-05-06 08:29 -36.42002 146.67255 33134 ft 515 kts 47°
2026-05-06 08:29 -36.37760 146.74415 33138 ft 514 kts 47°
2026-05-06 08:30 -36.33514 146.81550 33139 ft 515 kts 47°
2026-05-06 08:30 -36.29252 146.88684 33145 ft 514 kts 47°
2026-05-06 08:31 -36.24995 146.95797 33147 ft 514 kts 47°
2026-05-06 08:31 -36.20734 147.02901 33138 ft 514 kts 47°
2026-05-06 08:32 -36.16466 147.10002 33147 ft 514 kts 47°
2026-05-06 08:32 -36.12194 147.17093 33145 ft 514 kts 47°
2026-05-06 08:33 -36.07923 147.24169 33131 ft 513 kts 47°
2026-05-06 08:33 -36.03646 147.31237 33164 ft 514 kts 47°
2026-05-06 08:34 -35.97237 147.41806 33157 ft 514 kts 47°
2026-05-06 08:35 -35.92951 147.48858 33158 ft 513 kts 47°
2026-05-06 08:35 -35.88662 147.55897 33158 ft 513 kts 47°
2026-05-06 08:36 -35.84368 147.62930 33163 ft 513 kts 47°
2026-05-06 08:36 -35.80067 147.69962 33137 ft 513 kts 47°
2026-05-06 08:37 -35.75775 147.76963 33159 ft 513 kts 47°
2026-05-06 08:37 -35.71470 147.83972 33156 ft 513 kts 47°
2026-05-06 08:38 -35.67164 147.90967 33160 ft 513 kts 47°
2026-05-06 08:38 -35.62858 147.97949 33159 ft 512 kts 47°
2026-05-06 08:39 -35.58545 148.04930 33159 ft 512 kts 47°
2026-05-06 08:39 -35.54243 148.11894 33153 ft 512 kts 47°
2026-05-06 08:40 -35.49929 148.18855 33144 ft 512 kts 47°
2026-05-06 08:40 -35.45598 148.25794 33147 ft 512 kts 47°
2026-05-06 08:41 -35.41273 148.32726 33151 ft 512 kts 47°
2026-05-06 08:41 -35.36951 148.39647 33143 ft 512 kts 47°
2026-05-06 08:42 -35.32611 148.46575 33146 ft 513 kts 47°
2026-05-06 08:42 -35.28273 148.53495 33139 ft 512 kts 47°
2026-05-06 08:43 -35.23931 148.60411 33134 ft 512 kts 47°
2026-05-06 08:43 -35.19588 148.67314 33142 ft 512 kts 47°
2026-05-06 08:44 -35.15234 148.74218 33127 ft 513 kts 47°
2026-05-06 08:44 -35.10877 148.81118 33134 ft 512 kts 47°
2026-05-06 08:45 -35.06523 148.87998 33101 ft 512 kts 47°
2026-05-06 08:45 -35.02162 148.94873 33129 ft 513 kts 47°
2026-05-06 08:46 -34.97784 149.01764 33129 ft 513 kts 47°
2026-05-06 08:46 -34.93436 149.08594 33126 ft 513 kts 47°
2026-05-06 08:47 -34.89773 149.14338 33118 ft 513 kts 47°
2026-05-06 08:47 -34.85399 149.21184 33126 ft 509 kts 47°
2026-05-06 08:48 -34.80385 149.29024 33128 ft 503 kts 47°
2026-05-06 08:48 -34.76792 149.34624 32988 ft 498 kts 47°
2026-05-06 08:48 -34.74699 149.37983 32146 ft 500 kts 51°
2026-05-06 08:49 -34.72878 149.41628 31079 ft 509 kts 56°
2026-05-06 08:49 -34.71147 149.45405 30083 ft 515 kts 57°
2026-05-06 08:49 -34.69445 149.49257 28999 ft 517 kts 58°
2026-05-06 08:49 -34.67771 149.53120 28072 ft 516 kts 59°
2026-05-06 08:50 -34.66117 149.56957 27188 ft 507 kts 59°
2026-05-06 08:50 -34.64498 149.60713 25817 ft 498 kts 59°
2026-05-06 08:50 -34.62899 149.64403 24419 ft 491 kts 59°
2026-05-06 08:50 -34.61314 149.68037 23041 ft 482 kts 59°
2026-05-06 08:51 -34.59756 149.71596 21605 ft 473 kts 59°
2026-05-06 08:51 -34.58220 149.75094 20133 ft 466 kts 59°
2026-05-06 08:51 -34.56704 149.78540 18737 ft 459 kts 59°
2026-05-06 08:51 -34.55229 149.81887 17387 ft 451 kts 59°
2026-05-06 08:52 -34.53768 149.85208 16678 ft 428 kts 59°
2026-05-06 08:52 -34.52427 149.88262 16157 ft 404 kts 59°
2026-05-06 08:52 -34.51120 149.91235 15612 ft 388 kts 58°
2026-05-06 08:52 -34.49841 149.94127 15038 ft 391 kts 58°
2026-05-06 08:53 -34.48572 149.96994 14463 ft 390 kts 58°
2026-05-06 08:53 -34.47291 149.99877 13874 ft 387 kts 58°
2026-05-06 08:53 -34.46023 150.02736 13282 ft 383 kts 59°
2026-05-06 08:53 -34.44771 150.05555 12689 ft 384 kts 59°
2026-05-06 08:54 -34.43505 150.08406 12099 ft 381 kts 59°
2026-05-06 08:54 -34.42251 150.11227 11530 ft 379 kts 59°
2026-05-06 08:54 -34.41003 150.14034 10940 ft 377 kts 60°
2026-05-06 08:54 -34.39781 150.16787 10710 ft 363 kts 60°
2026-05-06 08:55 -34.38615 150.19412 10589 ft 346 kts 59°
2026-05-06 08:55 -34.37502 150.21914 10444 ft 331 kts 59°
2026-05-06 08:55 -34.36429 150.24324 10298 ft 317 kts 59°
2026-05-06 08:55 -34.35401 150.26628 10160 ft 305 kts 59°
2026-05-06 08:56 -34.34411 150.28846 10003 ft 295 kts 59°
2026-05-06 08:56 -34.33437 150.31026 9720 ft 298 kts 60°
2026-05-06 08:56 -34.32447 150.33255 9389 ft 301 kts 59°
2026-05-06 08:56 -34.31454 150.35474 9071 ft 299 kts 59°
2026-05-06 08:57 -34.30465 150.37678 8750 ft 296 kts 59°
2026-05-06 08:57 -34.29486 150.39858 8503 ft 295 kts 59°
2026-05-06 08:57 -34.28465 150.41989 8232 ft 291 kts 52°
2026-05-06 08:57 -34.27012 150.43635 8039 ft 283 kts 28°
2026-05-06 08:58 -34.25278 150.44732 7999 ft 282 kts 23°
2026-05-06 08:58 -34.23512 150.45765 7997 ft 282 kts 23°
2026-05-06 08:58 -34.21740 150.46808 7993 ft 283 kts 23°
2026-05-06 08:58 -34.19970 150.47852 7993 ft 284 kts 23°
2026-05-06 08:59 -34.18216 150.48889 7998 ft 284 kts 23°
2026-05-06 08:59 -34.16420 150.49955 7990 ft 284 kts 23°
2026-05-06 08:59 -34.14652 150.51005 7994 ft 284 kts 23°
2026-05-06 08:59 -34.12878 150.52059 7987 ft 284 kts 23°
2026-05-06 09:00 -34.11107 150.53110 7991 ft 284 kts 23°
2026-05-06 09:00 -34.09330 150.54165 7992 ft 284 kts 21°
2026-05-06 09:00 -34.07575 150.55182 7990 ft 284 kts 21°
2026-05-06 09:00 -34.05771 150.56223 7993 ft 284 kts 22°
2026-05-06 09:01 -34.04017 150.57245 7990 ft 284 kts 22°
2026-05-06 09:01 -34.02243 150.58286 7990 ft 284 kts 22°
2026-05-06 09:01 -34.00442 150.59347 7991 ft 284 kts 22°
2026-05-06 09:01 -33.98692 150.60383 7992 ft 284 kts 22°
2026-05-06 09:02 -33.96921 150.61431 7987 ft 284 kts 22°
2026-05-06 09:02 -33.95146 150.62481 7991 ft 284 kts 22°
2026-05-06 09:02 -33.93374 150.63528 7990 ft 284 kts 22°
2026-05-06 09:02 -33.91599 150.64577 7989 ft 284 kts 22°
2026-05-06 09:03 -33.89828 150.65623 7970 ft 282 kts 22°
2026-05-06 09:03 -33.88070 150.66662 7982 ft 282 kts 22°
2026-05-06 09:03 -33.86305 150.67702 7992 ft 283 kts 22°
2026-05-06 09:03 -33.84533 150.68746 7989 ft 284 kts 22°
2026-05-06 09:04 -33.82801 150.69906 7989 ft 286 kts 28°
2026-05-06 09:04 -33.81126 150.71179 7985 ft 286 kts 29°
2026-05-06 09:04 -33.79456 150.72483 7985 ft 286 kts 30°
2026-05-06 09:04 -33.77802 150.73796 7989 ft 286 kts 30°
2026-05-06 09:05 -33.76145 150.75122 7987 ft 285 kts 30°
2026-05-06 09:05 -33.74501 150.76443 7990 ft 285 kts 30°
2026-05-06 09:05 -33.72848 150.77775 7989 ft 285 kts 30°
2026-05-06 09:05 -33.71203 150.79101 7993 ft 285 kts 30°
2026-05-06 09:06 -33.69551 150.80434 7993 ft 285 kts 30°
2026-05-06 09:06 -33.67909 150.81758 7993 ft 285 kts 30°
2026-05-06 09:06 -33.66260 150.83088 7995 ft 285 kts 30°
2026-05-06 09:06 -33.64608 150.84419 7995 ft 285 kts 30°
2026-05-06 09:07 -33.62962 150.85749 7995 ft 285 kts 32°
2026-05-06 09:07 -33.61328 150.87092 7993 ft 285 kts 32°
2026-05-06 09:07 -33.59688 150.88432 7993 ft 285 kts 31°
2026-05-06 09:07 -33.58040 150.89770 7992 ft 285 kts 31°
2026-05-06 09:08 -33.56404 150.91092 7991 ft 285 kts 31°
2026-05-06 09:08 -33.54755 150.92421 7992 ft 285 kts 31°
2026-05-06 09:08 -33.53113 150.93742 7994 ft 285 kts 31°
2026-05-06 09:08 -33.51464 150.95067 7991 ft 285 kts 31°
2026-05-06 09:09 -33.49820 150.96387 7994 ft 285 kts 31°
2026-05-06 09:09 -33.48174 150.97708 7994 ft 285 kts 31°
2026-05-06 09:09 -33.46529 150.99028 7993 ft 285 kts 31°
2026-05-06 09:09 -33.44886 151.00347 7994 ft 285 kts 31°
2026-05-06 09:10 -33.43237 151.01664 7993 ft 285 kts 30°
2026-05-06 09:10 -33.41596 151.02975 7995 ft 285 kts 31°
2026-05-06 09:10 -33.40013 151.04431 7992 ft 287 kts 40°
2026-05-06 09:10 -33.38763 151.06307 7990 ft 292 kts 57°
2026-05-06 09:11 -33.38006 151.08563 7998 ft 295 kts 75°
2026-05-06 09:11 -33.37821 151.11008 7993 ft 297 kts 92°
2026-05-06 09:11 -33.38232 151.13430 7992 ft 298 kts 110°
2026-05-06 09:11 -33.39209 151.15606 7998 ft 298 kts 127°
2026-05-06 09:12 -33.40789 151.17149 7993 ft 294 kts 158°
2026-05-06 09:12 -33.42759 151.17520 7993 ft 285 kts 190°
2026-05-06 09:12 -33.44559 151.16673 8004 ft 277 kts 216°
2026-05-06 09:12 -33.46140 151.15338 7991 ft 277 kts 218°
2026-05-06 09:13 -33.47686 151.14018 7992 ft 277 kts 217°
2026-05-06 09:13 -33.49294 151.12681 7988 ft 278 kts 214°
2026-05-06 09:13 -33.51021 151.11694 7992 ft 281 kts 200°
2026-05-06 09:13 -33.52956 151.11198 7991 ft 284 kts 188°
2026-05-06 09:14 -33.54934 151.11078 7990 ft 286 kts 182°
2026-05-06 09:14 -33.56930 151.11178 7963 ft 287 kts 178°
2026-05-06 09:14 -33.58917 151.11404 7864 ft 286 kts 175°
2026-05-06 09:14 -33.60880 151.11698 7635 ft 285 kts 174°
2026-05-06 09:15 -33.62842 151.12035 7426 ft 284 kts 173°
2026-05-06 09:15 -33.64765 151.12387 7189 ft 283 kts 173°
2026-05-06 09:15 -33.66694 151.12753 7044 ft 271 kts 172°
2026-05-06 09:15 -33.68495 151.13102 6924 ft 259 kts 172°
2026-05-06 09:16 -33.70242 151.13442 6785 ft 249 kts 173°
2026-05-06 09:16 -33.71914 151.13768 6653 ft 238 kts 174°
2026-05-06 09:16 -33.73540 151.14065 6528 ft 229 kts 174°
2026-05-06 09:16 -33.75083 151.14349 6418 ft 219 kts 174°
2026-05-06 09:17 -33.76531 151.14620 6302 ft 210 kts 174°
2026-05-06 09:17 -33.77971 151.14891 6181 ft 210 kts 174°
2026-05-06 09:17 -33.79422 151.15167 6045 ft 211 kts 174°
2026-05-06 09:17 -33.80870 151.15389 5994 ft 209 kts 181°
2026-05-06 09:18 -33.82319 151.15175 5992 ft 207 kts 196°
2026-05-06 09:18 -33.83715 151.14769 5993 ft 206 kts 197°
2026-05-06 09:18 -33.85089 151.14362 5992 ft 206 kts 197°
2026-05-06 09:18 -33.86487 151.13952 5993 ft 206 kts 197°
2026-05-06 09:19 -33.87883 151.13547 5995 ft 206 kts 196°
2026-05-06 09:19 -33.89273 151.13145 6001 ft 205 kts 197°
2026-05-06 09:19 -33.90660 151.12744 5993 ft 206 kts 197°
2026-05-06 09:19 -33.92050 151.12343 5992 ft 206 kts 197°
2026-05-06 09:20 -33.93441 151.11942 5990 ft 205 kts 197°
2026-05-06 09:20 -33.94834 151.11540 5993 ft 205 kts 197°
2026-05-06 09:20 -33.96216 151.11144 5988 ft 206 kts 197°
2026-05-06 09:20 -33.97590 151.10753 5838 ft 205 kts 197°
2026-05-06 09:21 -33.98974 151.10352 5584 ft 204 kts 197°
2026-05-06 09:21 -34.00357 151.09950 5328 ft 204 kts 197°
2026-05-06 09:21 -34.01734 151.09551 5069 ft 204 kts 197°
2026-05-06 09:21 -34.03110 151.09153 4917 ft 204 kts 197°
2026-05-06 09:22 -34.04490 151.08753 4803 ft 203 kts 197°
2026-05-06 09:22 -34.05864 151.08355 4667 ft 203 kts 197°
2026-05-06 09:22 -34.07239 151.07966 4537 ft 204 kts 195°
2026-05-06 09:22 -34.08669 151.07903 4407 ft 208 kts 175°
2026-05-06 09:23 -34.10094 151.08226 4282 ft 209 kts 170°
2026-05-06 09:23 -34.11517 151.08609 4172 ft 210 kts 169°
2026-05-06 09:23 -34.12943 151.08991 4038 ft 210 kts 170°
2026-05-06 09:23 -34.14362 151.09366 3906 ft 208 kts 170°
2026-05-06 09:24 -34.15764 151.09733 3794 ft 209 kts 170°
2026-05-06 09:24 -34.17191 151.10106 3665 ft 211 kts 170°
2026-05-06 09:24 -34.18618 151.10575 3622 ft 221 kts 159°
2026-05-06 09:24 -34.19882 151.11708 3622 ft 234 kts 127°
2026-05-06 09:25 -34.20364 151.13545 3624 ft 232 kts 86°
2026-05-06 09:25 -34.19951 151.15383 3561 ft 221 kts 63°
2026-05-06 09:25 -34.19372 151.17031 3424 ft 207 kts 63°
2026-05-06 09:25 -34.18893 151.18627 3272 ft 196 kts 70°
2026-05-06 09:26 -34.18518 151.20138 3114 ft 180 kts 69°
2026-05-06 09:26 -34.18095 151.21469 2990 ft 159 kts 62°
2026-05-06 09:26 -34.17560 151.22521 2953 ft 137 kts 45°
2026-05-06 09:26 -34.16781 151.23070 2991 ft 130 kts
2026-05-06 09:27 -34.15879 151.23108 2998 ft 130 kts 352°
2026-05-06 09:27 -34.14984 151.22960 2992 ft 131 kts 349°
2026-05-06 09:27 -34.14092 151.22759 2987 ft 130 kts 347°
2026-05-06 09:27 -34.13202 151.22530 2987 ft 130 kts 346°
2026-05-06 09:28 -34.12316 151.22295 2981 ft 131 kts 345°
2026-05-06 09:28 -34.11435 151.22060 2983 ft 132 kts 346°
2026-05-06 09:28 -34.10525 151.21821 2847 ft 132 kts 346°
2026-05-06 09:28 -34.09641 151.21588 2674 ft 131 kts 346°
2026-05-06 09:29 -34.08749 151.21351 2490 ft 131 kts 346°
2026-05-06 09:29 -34.07858 151.21114 2327 ft 131 kts 347°
2026-05-06 09:29 -34.06972 151.20879 2145 ft 130 kts 347°
2026-05-06 09:29 -34.06085 151.20643 1973 ft 130 kts 348°
2026-05-06 09:30 -34.05205 151.20409 1796 ft 129 kts 348°
2026-05-06 09:30 -34.04327 151.20176 1620 ft 129 kts 349°
2026-05-06 09:30 -34.03455 151.19945 1446 ft 128 kts 349°
2026-05-06 09:30 -34.02585 151.19715 1277 ft 128 kts 349°
2026-05-06 09:31 -34.01717 151.19484 1105 ft 128 kts 349°
2026-05-06 09:31 -34.00850 151.19255 945 ft 127 kts 349°
2026-05-06 09:31 -33.99993 151.19029 788 ft 125 kts 349°
2026-05-06 09:31 -33.99128 151.18787 647 ft 130 kts 348°
2026-05-06 09:32 -33.98252 151.18545 404 ft 129 kts 349°
2026-05-06 09:32 -33.97376 151.18309 270 ft 131 kts 350°
2026-05-06 09:32 -33.96473 151.18068 102 ft 135 kts 349°
2026-05-06 09:32 -33.95870 151.17913 30 ft 131 kts 350°
2026-05-06 09:33 -33.95106 151.17724 29 ft 100 kts 348°
2026-05-06 09:33 -33.94511 151.17566 31 ft 72 kts 347°
2026-05-06 09:33 -33.94093 151.17454 30 ft 53 kts 346°
2026-05-06 09:33 -33.93776 151.17374 27 ft 40 kts 349°
2026-05-06 09:34 -33.93496 151.17302 24 ft 49 kts 345°
2026-05-06 09:34 -33.93432 151.17147 25 ft 0 kts 253°
2026-05-06 09:35 -33.93476 151.17109 29 ft 11 kts 192°
2026-05-06 09:35 -33.93555 151.17117 26 ft 13 kts 171°
2026-05-06 09:35 -33.93662 151.17137 27 ft 19 kts 186°
2026-05-06 09:35 -33.93715 151.17014 27 ft 20 kts 262°
2026-05-06 09:36 -33.93729 151.16950 27 ft 0 kts 253°